TimeEDT,TemperatureF,Dew PointF,Humidity,Sea Level PressureIn,VisibilityMPH,Wind Direction,Wind SpeedMPH,Gust SpeedMPH,PrecipitationIn,Events,Conditions,WindDirDegrees,DateUTC
12:15 AM,62.6,62.6,100,30.23,10.0,NE,3.5,-,N/A,,Clear,50,2013-08-24 04:15:00
12:35 AM,62.6,62.6,100,30.24,10.0,Calm,Calm,-,N/A,,Clear,0,2013-08-24 04:35:00
12:55 AM,62.6,62.6,100,30.24,10.0,Calm,Calm,-,N/A,,Clear,0,2013-08-24 04:55:00
1:15 AM,60.8,60.8,100,30.24,10.0,Calm,Calm,-,N/A,,Clear,0,2013-08-24 05:15:00
1:35 AM,60.8,60.8,100,30.24,7.0,Calm,Calm,-,N/A,,Clear,0,2013-08-24 05:35:00
1:55 AM,59.0,59.0,100,30.24,10.0,Calm,Calm,-,N/A,,Clear,0,2013-08-24 05:55:00
2:15 AM,59.0,59.0,100,30.24,10.0,Calm,Calm,-,N/A,,Clear,0,2013-08-24 06:15:00
2:35 AM,57.2,57.2,100,30.24,7.0,Calm,Calm,-,N/A,,Clear,0,2013-08-24 06:35:00
2:55 AM,57.2,57.2,100,30.24,7.0,Calm,Calm,-,N/A,,Clear,0,2013-08-24 06:55:00
3:15 AM,57.2,57.2,100,30.25,7.0,Calm,Calm,-,N/A,,Clear,0,2013-08-24 07:15:00
3:35 AM,57.2,57.2,100,30.25,5.0,Calm,Calm,-,N/A,,Clear,0,2013-08-24 07:35:00
3:55 AM,57.2,57.2,100,30.26,4.0,Calm,Calm,-,N/A,,Clear,0,2013-08-24 07:55:00
4:15 AM,57.2,57.2,100,30.26,5.0,Calm,Calm,-,N/A,,Clear,0,2013-08-24 08:15:00
4:35 AM,55.4,55.4,100,30.26,5.0,Calm,Calm,-,N/A,,Clear,0,2013-08-24 08:35:00
4:55 AM,55.4,55.4,100,30.27,3.0,Calm,Calm,-,N/A,,Clear,0,2013-08-24 08:55:00
5:15 AM,55.4,55.4,100,30.27,1.5,Calm,Calm,-,N/A,,Mist,0,2013-08-24 09:15:00
5:35 AM,55.4,55.4,100,30.28,4.0,Calm,Calm,-,N/A,,Clear,0,2013-08-24 09:35:00
5:55 AM,55.4,55.4,100,30.28,0.8,Calm,Calm,-,N/A,,Mostly Cloudy,0,2013-08-24 09:55:00
6:15 AM,53.6,53.6,100,30.29,2.0,Calm,Calm,-,N/A,,Clear,0,2013-08-24 10:15:00
6:35 AM,53.6,53.6,100,30.30,7.0,Calm,Calm,-,N/A,,Clear,0,2013-08-24 10:35:00
6:55 AM,53.6,53.6,100,30.30,7.0,Calm,Calm,-,N/A,,Clear,0,2013-08-24 10:55:00
7:15 AM,53.6,53.6,100,30.31,7.0,Calm,Calm,-,N/A,,Clear,0,2013-08-24 11:15:00
7:35 AM,55.4,55.4,100,30.32,10.0,Calm,Calm,-,N/A,,Clear,0,2013-08-24 11:35:00
7:55 AM,57.2,57.2,100,30.32,7.0,Calm,Calm,-,N/A,,Clear,0,2013-08-24 11:55:00
8:15 AM,60.8,60.8,100,30.33,7.0,Calm,Calm,-,N/A,,Clear,0,2013-08-24 12:15:00
8:35 AM,60.8,60.8,100,30.34,10.0,Calm,Calm,-,N/A,,Clear,0,2013-08-24 12:35:00
8:55 AM,62.6,62.6,100,30.34,10.0,Calm,Calm,-,N/A,,Clear,0,2013-08-24 12:55:00
9:15 AM,64.4,62.6,94,30.35,10.0,Calm,Calm,-,N/A,,Clear,0,2013-08-24 13:15:00
9:35 AM,66.2,60.8,83,30.35,10.0,East,3.5,-,N/A,,Clear,80,2013-08-24 13:35:00
9:55 AM,66.2,60.8,83,30.36,10.0,East,4.6,-,N/A,,Clear,80,2013-08-24 13:55:00
10:15 AM,68.0,60.8,78,30.36,10.0,ESE,5.8,-,N/A,,Clear,110,2013-08-24 14:15:00
10:35 AM,69.8,59.0,68,30.37,10.0,ENE,5.8,-,N/A,,Clear,70,2013-08-24 14:35:00
10:55 AM,69.8,59.0,68,30.37,10.0,East,8.1,-,N/A,,Clear,80,2013-08-24 14:55:00
11:15 AM,71.6,59.0,64,30.37,10.0,ENE,6.9,-,N/A,,Clear,70,2013-08-24 15:15:00
11:35 AM,71.6,59.0,64,30.37,10.0,ENE,8.1,-,N/A,,Clear,60,2013-08-24 15:35:00
11:55 AM,73.4,60.8,65,30.37,10.0,ENE,5.8,-,N/A,,Clear,60,2013-08-24 15:55:00
12:15 PM,71.6,57.2,60,30.37,10.0,East,5.8,-,N/A,,Clear,100,2013-08-24 16:15:00
12:35 PM,73.4,59.0,61,30.36,10.0,ESE,9.2,-,N/A,,Clear,120,2013-08-24 16:35:00
12:55 PM,75.2,57.2,53,30.36,10.0,ESE,6.9,-,N/A,,Clear,120,2013-08-24 16:55:00
1:15 PM,75.2,57.2,53,30.36,10.0,East,8.1,-,N/A,,Clear,100,2013-08-24 17:15:00
1:35 PM,75.2,57.2,53,30.36,10.0,East,8.1,-,N/A,,Clear,90,2013-08-24 17:35:00
1:55 PM,75.2,57.2,53,30.35,10.0,East,11.5,-,N/A,,Clear,100,2013-08-24 17:55:00
2:15 PM,75.2,57.2,53,30.35,10.0,East,6.9,-,N/A,,Clear,90,2013-08-24 18:15:00
2:35 PM,75.2,57.2,53,30.36,10.0,East,10.4,-,N/A,,Clear,90,2013-08-24 18:35:00
2:55 PM,75.2,57.2,53,30.36,10.0,East,6.9,-,N/A,,Clear,100,2013-08-24 18:55:00
3:15 PM,75.2,55.4,50,30.35,10.0,ENE,4.6,-,N/A,,Clear,70,2013-08-24 19:15:00
3:35 PM,77.0,57.2,50,30.35,10.0,East,9.2,-,N/A,,Scattered Clouds,100,2013-08-24 19:35:00
3:55 PM,75.2,57.2,53,30.35,10.0,Calm,Calm,-,N/A,,Scattered Clouds,0,2013-08-24 19:55:00
4:15 PM,75.2,57.2,53,30.35,10.0,ESE,6.9,-,N/A,,Scattered Clouds,120,2013-08-24 20:15:00
4:35 PM,73.4,57.2,57,30.35,10.0,ENE,6.9,-,N/A,,Scattered Clouds,70,2013-08-24 20:35:00
4:55 PM,73.4,60.8,65,30.35,10.0,ESE,10.4,-,N/A,,Scattered Clouds,110,2013-08-24 20:55:00
5:15 PM,75.2,60.8,61,30.35,10.0,East,8.1,-,N/A,,Scattered Clouds,90,2013-08-24 21:15:00
5:35 PM,75.2,60.8,61,30.35,10.0,ESE,9.2,-,N/A,,Clear,110,2013-08-24 21:35:00
5:55 PM,75.2,59.0,57,30.35,10.0,East,6.9,-,N/A,,Clear,90,2013-08-24 21:55:00
6:15 PM,73.4,59.0,61,30.35,10.0,East,8.1,-,N/A,,Clear,90,2013-08-24 22:15:00
6:35 PM,73.4,60.8,65,30.35,10.0,East,6.9,-,N/A,,Clear,100,2013-08-24 22:35:00
6:55 PM,73.4,59.0,61,30.35,10.0,East,5.8,-,N/A,,Clear,100,2013-08-24 22:55:00
7:15 PM,71.6,60.8,69,30.35,10.0,East,4.6,-,N/A,,Clear,90,2013-08-24 23:15:00
7:35 PM,69.8,60.8,73,30.35,4.0,East,4.6,-,N/A,,Haze,100,2013-08-24 23:35:00
7:55 PM,69.8,60.8,73,30.35,4.0,East,3.5,-,N/A,,Haze,100,2013-08-24 23:55:00
8:15 PM,66.2,60.8,83,30.35,10.0,ESE,3.5,-,N/A,,Clear,120,2013-08-25 00:15:00
8:35 PM,64.4,60.8,88,30.36,10.0,Calm,Calm,-,N/A,,Clear,0,2013-08-25 00:35:00
8:55 PM,62.6,60.8,94,30.37,10.0,Calm,Calm,-,N/A,,Clear,0,2013-08-25 00:55:00
9:15 PM,62.6,60.8,94,30.38,10.0,Calm,Calm,-,N/A,,Clear,0,2013-08-25 01:15:00
9:35 PM,60.8,60.8,100,30.39,10.0,Calm,Calm,-,N/A,,Clear,0,2013-08-25 01:35:00
9:55 PM,60.8,60.8,100,30.39,10.0,Calm,Calm,-,N/A,,Clear,0,2013-08-25 01:55:00
10:15 PM,60.8,60.8,100,30.39,10.0,Calm,Calm,-,N/A,,Clear,0,2013-08-25 02:15:00
10:35 PM,59.0,59.0,100,30.40,10.0,Calm,Calm,-,N/A,,Clear,0,2013-08-25 02:35:00
10:55 PM,59.0,59.0,100,30.41,10.0,Calm,Calm,-,N/A,,Clear,0,2013-08-25 02:55:00
11:15 PM,59.0,59.0,100,30.41,10.0,Calm,Calm,-,N/A,,Clear,0,2013-08-25 03:15:00
11:35 PM,59.0,59.0,100,30.41,10.0,Calm,Calm,-,N/A,,Clear,0,2013-08-25 03:35:00
11:55 PM,57.2,57.2,100,30.41,10.0,Calm,Calm,-,N/A,,Clear,0,2013-08-25 03:55:00